AAL1589 KDCA-KBOS

Flight info

Callsign AAL1589
Flight time 1h 12m
Altitude 37000
Route SOOKI6 SWANN DCT BROSS Q419 JFK ROBUC3
Aircraft A319/M-FAA/L

Departure

Time 2026-05-06 01:24
Airport Ronald Reagan Washington National Airport (KDCA)

Arrival

Time 2026-05-06 02:36
Airport Boston Logan International Airport (KBOS)
Time Latitude Longitude Altitude Speed Heading
2026-05-06 00:47 38.85363 -77.04155 26 ft 0 kts 315°
2026-05-06 01:04 38.85354 -77.04143 25 ft 2 kts 328°
2026-05-06 01:05 38.85340 -77.04132 33 ft 2 kts 338°
2026-05-06 01:05 38.85324 -77.04128 28 ft 2 kts 17°
2026-05-06 01:05 38.85310 -77.04139 26 ft 2 kts 64°
2026-05-06 01:05 38.85307 -77.04146 26 ft 0 kts 71°
2026-05-06 01:08 38.85309 -77.04138 26 ft 2 kts 71°
2026-05-06 01:08 38.85316 -77.04111 30 ft 4 kts 71°
2026-05-06 01:09 38.85326 -77.04072 28 ft 0 kts 71°
2026-05-06 01:09 38.85328 -77.04064 26 ft 0 kts 71°
2026-05-06 01:09 38.85329 -77.04062 25 ft 2 kts 71°
2026-05-06 01:09 38.85333 -77.04048 24 ft 1 kts 71°
2026-05-06 01:10 38.85338 -77.04026 24 ft 4 kts 71°
2026-05-06 01:10 38.85340 -77.04018 27 ft 0 kts 71°
2026-05-06 01:10 38.85343 -77.04013 25 ft 2 kts 58°
2026-05-06 01:10 38.85348 -77.04004 25 ft 2 kts 58°
2026-05-06 01:11 38.85363 -77.03995 24 ft 3 kts
2026-05-06 01:11 38.85386 -77.03997 24 ft 4 kts 354°
2026-05-06 01:11 38.85438 -77.04004 25 ft 16 kts 354°
2026-05-06 01:11 38.85545 -77.04028 30 ft 13 kts 347°
2026-05-06 01:12 38.85590 -77.04037 27 ft 2 kts 353°
2026-05-06 01:12 38.85592 -77.04037 27 ft 1 kts 353°
2026-05-06 01:12 38.85594 -77.04038 27 ft 0 kts 353°
2026-05-06 01:13 38.85597 -77.04038 28 ft 0 kts 353°
2026-05-06 01:13 38.85607 -77.04039 28 ft 8 kts 355°
2026-05-06 01:13 38.85687 -77.04048 29 ft 8 kts 355°
2026-05-06 01:13 38.85704 -77.04050 30 ft 2 kts 355°
2026-05-06 01:14 38.85834 -77.04062 27 ft 14 kts 358°
2026-05-06 01:14 38.85926 -77.04035 26 ft 11 kts 50°
2026-05-06 01:14 38.85956 -77.03999 26 ft 0 kts 36°
2026-05-06 01:15 38.85959 -77.03996 26 ft 1 kts 36°
2026-05-06 01:15 38.85969 -77.03987 26 ft 0 kts 36°
2026-05-06 01:19 38.85972 -77.03984 26 ft 2 kts 36°
2026-05-06 01:19 38.85990 -77.03971 30 ft 5 kts 22°
2026-05-06 01:19 38.86005 -77.03964 26 ft 0 kts 19°
2026-05-06 01:21 38.86008 -77.03963 26 ft 2 kts 19°
2026-05-06 01:21 38.86013 -77.03961 26 ft 0 kts 19°
2026-05-06 01:23 38.86015 -77.03960 26 ft 2 kts 19°
2026-05-06 01:23 38.86067 -77.03896 23 ft 10 kts 85°
2026-05-06 01:23 38.86031 -77.03864 24 ft 10 kts 174°
2026-05-06 01:23 38.85835 -77.03843 28 ft 63 kts 175°
2026-05-06 01:24 38.85156 -77.03778 24 ft 129 kts 175°
2026-05-06 01:24 38.84174 -77.03661 435 ft 143 kts 176°
2026-05-06 01:24 38.83171 -77.03516 1000 ft 144 kts 174°
2026-05-06 01:24 38.82200 -77.03318 1654 ft 142 kts 177°
2026-05-06 01:25 38.81187 -77.03107 2134 ft 157 kts 179°
2026-05-06 01:25 38.80025 -77.02872 2518 ft 180 kts 178°
2026-05-06 01:25 38.78694 -77.02600 2918 ft 206 kts 178°
2026-05-06 01:25 38.77247 -77.02293 3672 ft 217 kts 177°
2026-05-06 01:26 38.75811 -77.01529 4563 ft 240 kts 147°
2026-05-06 01:26 38.74850 -76.99611 5229 ft 279 kts 113°
2026-05-06 01:26 38.74575 -76.97056 6078 ft 298 kts 96°
2026-05-06 01:26 38.75017 -76.94411 6973 ft 313 kts 66°
2026-05-06 01:27 38.76193 -76.92052 7948 ft 316 kts 51°
2026-05-06 01:27 38.77733 -76.90025 8929 ft 317 kts 37°
2026-05-06 01:27 38.79549 -76.88422 9939 ft 317 kts 29°
2026-05-06 01:27 38.81425 -76.86910 10741 ft 324 kts 29°
2026-05-06 01:28 38.83379 -76.85362 11059 ft 347 kts 28°
2026-05-06 01:28 38.85468 -76.83720 11735 ft 356 kts 29°
2026-05-06 01:28 38.87466 -76.81771 12499 ft 365 kts 40°
2026-05-06 01:28 38.89361 -76.79570 13297 ft 370 kts 40°
2026-05-06 01:29 38.91259 -76.77369 14067 ft 374 kts 40°
2026-05-06 01:29 38.93204 -76.75114 14762 ft 378 kts 40°
2026-05-06 01:29 38.95159 -76.72850 15462 ft 383 kts 40°
2026-05-06 01:29 38.97149 -76.70544 16138 ft 388 kts 40°
2026-05-06 01:30 38.99171 -76.68199 16803 ft 393 kts 40°
2026-05-06 01:30 39.01191 -76.65854 17454 ft 399 kts 40°
2026-05-06 01:30 39.03227 -76.63395 18111 ft 404 kts 43°
2026-05-06 01:30 39.05248 -76.60838 18697 ft 410 kts 43°
2026-05-06 01:31 39.07270 -76.58214 19243 ft 414 kts 44°
2026-05-06 01:31 39.09243 -76.55484 19841 ft 419 kts 50°
2026-05-06 01:31 39.10853 -76.52320 20445 ft 424 kts 62°
2026-05-06 01:31 39.11995 -76.48821 21035 ft 427 kts 74°
2026-05-06 01:32 39.12640 -76.45130 21641 ft 428 kts 84°
2026-05-06 01:32 39.13072 -76.41331 22234 ft 431 kts 84°
2026-05-06 01:32 39.13510 -76.37471 22823 ft 435 kts 84°
2026-05-06 01:32 39.13950 -76.33591 23387 ft 439 kts 83°
2026-05-06 01:33 39.14392 -76.29667 23867 ft 443 kts 83°
2026-05-06 01:33 39.14833 -76.25718 24345 ft 446 kts 83°
2026-05-06 01:33 39.15270 -76.21785 24824 ft 449 kts 83°
2026-05-06 01:33 39.15719 -76.17801 25299 ft 451 kts 83°
2026-05-06 01:34 39.16182 -76.13761 25763 ft 454 kts 83°
2026-05-06 01:34 39.16650 -76.09724 26227 ft 456 kts 82°
2026-05-06 01:34 39.17123 -76.05661 26684 ft 458 kts 82°
2026-05-06 01:34 39.17588 -76.01631 27124 ft 461 kts 82°
2026-05-06 01:35 39.18058 -75.97530 27573 ft 463 kts 81°
2026-05-06 01:35 39.18792 -75.93475 28012 ft 466 kts 71°
2026-05-06 01:35 39.20028 -75.89614 28446 ft 467 kts 61°
2026-05-06 01:35 39.21745 -75.86061 28868 ft 466 kts 50°
2026-05-06 01:36 39.23882 -75.82929 29302 ft 465 kts 40°
2026-05-06 01:36 39.26330 -75.80202 29720 ft 465 kts 36°
2026-05-06 01:36 39.28782 -75.77548 30113 ft 467 kts 36°
2026-05-06 01:36 39.31304 -75.74798 30464 ft 469 kts 36°
2026-05-06 01:37 39.33770 -75.72097 30806 ft 471 kts 36°
2026-05-06 01:37 39.36276 -75.69339 31140 ft 473 kts 36°
2026-05-06 01:37 39.38786 -75.66569 31480 ft 475 kts 36°
2026-05-06 01:37 39.41312 -75.63780 31796 ft 477 kts 36°
2026-05-06 01:38 39.43806 -75.61027 32183 ft 477 kts 36°
2026-05-06 01:38 39.46327 -75.58247 32659 ft 475 kts 36°
2026-05-06 01:38 39.48849 -75.55473 33131 ft 473 kts 36°
2026-05-06 01:38 39.51351 -75.52723 33602 ft 471 kts 35°
2026-05-06 01:39 39.53841 -75.49980 34046 ft 469 kts 35°
2026-05-06 01:39 39.56325 -75.47232 34482 ft 468 kts 35°
2026-05-06 01:39 39.58794 -75.44495 34882 ft 466 kts 34°
2026-05-06 01:39 39.61257 -75.41767 35271 ft 464 kts 34°
2026-05-06 01:40 39.63677 -75.39092 35682 ft 461 kts 34°
2026-05-06 01:40 39.66113 -75.36395 36087 ft 459 kts 33°
2026-05-06 01:40 39.68545 -75.33697 36467 ft 457 kts 33°
2026-05-06 01:40 39.70953 -75.31020 36816 ft 456 kts 33°
2026-05-06 01:41 39.75710 -75.25714 36924 ft 449 kts 33°
2026-05-06 01:41 39.80293 -75.20178 36926 ft 454 kts 42°
2026-05-06 01:42 39.84468 -75.13989 36925 ft 454 kts 41°
2026-05-06 01:42 39.88636 -75.07786 36924 ft 454 kts 41°
2026-05-06 01:43 39.92759 -75.01630 36920 ft 452 kts 42°
2026-05-06 01:43 39.96872 -74.95429 36945 ft 455 kts 46°
2026-05-06 01:44 40.00453 -74.88544 36935 ft 459 kts 50°
2026-05-06 01:44 40.03993 -74.81595 36921 ft 459 kts 50°
2026-05-06 01:45 40.07512 -74.74670 36910 ft 459 kts 50°
2026-05-06 01:45 40.11050 -74.67702 36929 ft 460 kts 50°
2026-05-06 01:46 40.14567 -74.60754 36911 ft 460 kts 50°
2026-05-06 01:46 40.18100 -74.53762 36902 ft 461 kts 50°
2026-05-06 01:47 40.22156 -74.47465 36901 ft 446 kts 33°
2026-05-06 01:47 40.26952 -74.42355 36917 ft 444 kts 32°
2026-05-06 01:48 40.31745 -74.37234 36942 ft 446 kts 32°
2026-05-06 01:48 40.36543 -74.32082 36921 ft 446 kts 33°
2026-05-06 01:49 40.41319 -74.26954 36907 ft 447 kts 32°
2026-05-06 01:49 40.46145 -74.21763 36911 ft 447 kts 33°
2026-05-06 01:50 40.50957 -74.16576 36937 ft 448 kts 33°
2026-05-06 01:50 40.55071 -74.10325 36225 ft 468 kts 55°
2026-05-06 01:51 40.56424 -74.06604 35680 ft 473 kts 66°
2026-05-06 01:51 40.57397 -74.02513 35181 ft 472 kts 70°
2026-05-06 01:51 40.58342 -73.98385 34715 ft 468 kts 70°
2026-05-06 01:51 40.59289 -73.94315 34348 ft 463 kts 70°
2026-05-06 01:52 40.60229 -73.90295 33938 ft 458 kts 70°
2026-05-06 01:52 40.61160 -73.86315 33341 ft 453 kts 71°
2026-05-06 01:52 40.62085 -73.82361 32575 ft 448 kts 70°
2026-05-06 01:52 40.63237 -73.78638 31980 ft 444 kts 60°
2026-05-06 01:53 40.64819 -73.75180 31494 ft 439 kts 52°
2026-05-06 01:53 40.66751 -73.72094 31013 ft 435 kts 45°
2026-05-06 01:53 40.68779 -73.69142 30530 ft 433 kts 45°
2026-05-06 01:53 40.70797 -73.66191 30063 ft 432 kts 46°
2026-05-06 01:54 40.72726 -73.63367 29586 ft 430 kts 46°
2026-05-06 01:54 40.74805 -73.60318 29123 ft 427 kts 46°
2026-05-06 01:54 40.76787 -73.57406 28681 ft 424 kts 46°
2026-05-06 01:54 40.78751 -73.54519 28226 ft 422 kts 46°
2026-05-06 01:55 40.80705 -73.51645 27825 ft 420 kts 46°
2026-05-06 01:55 40.82631 -73.48809 27414 ft 418 kts 46°
2026-05-06 01:55 40.84571 -73.45953 26987 ft 415 kts 46°
2026-05-06 01:55 40.86501 -73.43113 26569 ft 413 kts 46°
2026-05-06 01:56 40.88414 -73.40294 26152 ft 411 kts 46°
2026-05-06 01:56 40.90322 -73.37474 25736 ft 409 kts 46°
2026-05-06 01:56 40.92215 -73.34675 25331 ft 407 kts 46°
2026-05-06 01:56 40.94079 -73.31919 24928 ft 405 kts 46°
2026-05-06 01:57 40.95953 -73.29143 24510 ft 403 kts 46°
2026-05-06 01:57 40.97812 -73.26387 24160 ft 399 kts 46°
2026-05-06 01:57 40.99657 -73.23658 24063 ft 397 kts 46°
2026-05-06 01:57 41.01503 -73.20922 24068 ft 399 kts 46°
2026-05-06 01:58 41.03356 -73.18172 24068 ft 400 kts 46°
2026-05-06 01:58 41.05204 -73.15422 24071 ft 400 kts 46°
2026-05-06 01:58 41.07033 -73.12693 24070 ft 400 kts 46°
2026-05-06 01:58 41.08887 -73.09930 24053 ft 400 kts 46°
2026-05-06 01:59 41.10740 -73.07167 24068 ft 400 kts 46°
2026-05-06 01:59 41.12595 -73.04396 23902 ft 401 kts 46°
2026-05-06 01:59 41.14447 -73.01620 23700 ft 399 kts 47°
2026-05-06 01:59 41.16294 -72.98853 23473 ft 399 kts 47°
2026-05-06 02:00 41.18130 -72.96096 23249 ft 398 kts 47°
2026-05-06 02:00 41.19939 -72.93374 23047 ft 395 kts 48°
2026-05-06 02:00 41.21540 -72.90421 22890 ft 392 kts 59°
2026-05-06 02:00 41.22801 -72.87215 22795 ft 391 kts 63°
2026-05-06 02:01 41.24039 -72.83986 22593 ft 390 kts 63°
2026-05-06 02:01 41.25253 -72.80828 22336 ft 389 kts 63°
2026-05-06 02:01 41.26489 -72.77612 22089 ft 388 kts 63°
2026-05-06 02:01 41.27711 -72.74418 21828 ft 386 kts 63°
2026-05-06 02:02 41.28928 -72.71225 21564 ft 385 kts 63°
2026-05-06 02:02 41.30124 -72.68086 21336 ft 385 kts 63°
2026-05-06 02:02 41.31335 -72.64907 21093 ft 385 kts 63°
2026-05-06 02:02 41.32542 -72.61729 20938 ft 383 kts 63°
2026-05-06 02:03 41.33740 -72.58563 20965 ft 383 kts 63°
2026-05-06 02:03 41.34942 -72.55403 20970 ft 382 kts 63°
2026-05-06 02:03 41.36141 -72.52250 20971 ft 381 kts 63°
2026-05-06 02:03 41.37341 -72.49094 20969 ft 381 kts 63°
2026-05-06 02:04 41.38519 -72.45986 20971 ft 381 kts 63°
2026-05-06 02:04 41.39712 -72.42826 20971 ft 381 kts 63°
2026-05-06 02:04 41.40901 -72.39668 20968 ft 381 kts 63°
2026-05-06 02:04 41.42091 -72.36503 20966 ft 381 kts 63°
2026-05-06 02:05 41.43283 -72.33333 20962 ft 381 kts 63°
2026-05-06 02:05 41.44472 -72.30168 20959 ft 381 kts 63°
2026-05-06 02:05 41.45659 -72.27007 20954 ft 381 kts 63°
2026-05-06 02:05 41.46844 -72.23854 20944 ft 380 kts 63°
2026-05-06 02:06 41.48008 -72.20751 20942 ft 380 kts 63°
2026-05-06 02:06 41.49184 -72.17588 20708 ft 379 kts 63°
2026-05-06 02:06 41.50343 -72.14424 20466 ft 378 kts 64°
2026-05-06 02:06 41.51490 -72.11276 20219 ft 376 kts 64°
2026-05-06 02:07 41.52634 -72.08129 20004 ft 375 kts 64°
2026-05-06 02:07 41.53772 -72.04997 19921 ft 375 kts 64°
2026-05-06 02:07 41.54906 -72.01873 19940 ft 376 kts 64°
2026-05-06 02:07 41.56036 -71.98716 19948 ft 376 kts 65°
2026-05-06 02:08 41.57073 -71.95520 19941 ft 376 kts 68°
2026-05-06 02:08 41.58046 -71.92277 19960 ft 376 kts 69°
2026-05-06 02:08 41.58986 -71.89015 19934 ft 376 kts 69°
2026-05-06 02:08 41.59915 -71.85749 19949 ft 376 kts 69°
2026-05-06 02:09 41.60851 -71.82494 19943 ft 376 kts 69°
2026-05-06 02:09 41.61800 -71.79236 19951 ft 376 kts 69°
2026-05-06 02:09 41.62755 -71.75988 19938 ft 376 kts 68°
2026-05-06 02:09 41.63698 -71.72784 19951 ft 376 kts 68°
2026-05-06 02:10 41.64670 -71.69482 19701 ft 377 kts 69°
2026-05-06 02:10 41.65624 -71.66240 19448 ft 374 kts 69°
2026-05-06 02:10 41.66562 -71.63050 19251 ft 373 kts 69°
2026-05-06 02:10 41.67508 -71.59830 19057 ft 372 kts 69°
2026-05-06 02:11 41.68452 -71.56613 18742 ft 373 kts 69°
2026-05-06 02:11 41.69402 -71.53372 18332 ft 373 kts 69°
2026-05-06 02:11 41.70345 -71.50148 17924 ft 371 kts 69°
2026-05-06 02:11 41.71284 -71.46937 17546 ft 368 kts 69°
2026-05-06 02:12 41.72217 -71.43781 17188 ft 366 kts 67°
2026-05-06 02:12 41.73407 -71.40770 16760 ft 364 kts 60°
2026-05-06 02:12 41.74660 -71.37842 16249 ft 361 kts 60°
2026-05-06 02:12 41.75901 -71.34938 15673 ft 357 kts 60°
2026-05-06 02:13 41.77125 -71.32077 15248 ft 357 kts 60°
2026-05-06 02:13 41.78350 -71.29208 14962 ft 353 kts 60°
2026-05-06 02:13 41.79564 -71.26359 14513 ft 351 kts 60°
2026-05-06 02:13 41.80768 -71.23529 14101 ft 350 kts 59°
2026-05-06 02:14 41.81971 -71.20702 13751 ft 347 kts 60°
2026-05-06 02:14 41.83158 -71.17903 13168 ft 344 kts 60°
2026-05-06 02:14 41.84341 -71.15117 12601 ft 341 kts 60°
2026-05-06 02:14 41.85505 -71.12379 12273 ft 336 kts 60°
2026-05-06 02:15 41.86277 -71.10573 12021 ft 332 kts 60°
2026-05-06 02:15 41.87803 -71.07044 11777 ft 329 kts 60°
2026-05-06 02:15 41.88957 -71.04382 11618 ft 329 kts 60°
2026-05-06 02:15 41.90108 -71.01727 11484 ft 328 kts 60°
2026-05-06 02:16 41.90866 -70.99977 11393 ft 328 kts 60°
2026-05-06 02:16 41.92014 -70.97321 11235 ft 327 kts 60°
2026-05-06 02:16 41.93157 -70.94666 11091 ft 327 kts 60°
2026-05-06 02:16 41.94294 -70.92021 10940 ft 326 kts 60°
2026-05-06 02:17 41.95415 -70.89409 10794 ft 326 kts 60°
2026-05-06 02:17 41.96545 -70.86776 10648 ft 325 kts 60°
2026-05-06 02:17 41.97677 -70.84140 10513 ft 324 kts 60°
2026-05-06 02:17 41.98806 -70.81514 10374 ft 324 kts 60°
2026-05-06 02:18 41.99930 -70.78889 10227 ft 323 kts 60°
2026-05-06 02:18 42.01103 -70.76307 10077 ft 323 kts 53°
2026-05-06 02:18 42.02555 -70.74002 9733 ft 322 kts 46°
2026-05-06 02:18 42.04031 -70.71800 9414 ft 320 kts 46°
2026-05-06 02:19 42.05465 -70.69511 9231 ft 317 kts 53°
2026-05-06 02:19 42.06849 -70.67172 8923 ft 323 kts 48°
2026-05-06 02:19 42.08346 -70.64945 8508 ft 319 kts 45°
2026-05-06 02:19 42.09969 -70.62956 8204 ft 313 kts 31°
2026-05-06 02:20 42.13904 -70.60810 7628 ft 301 kts
2026-05-06 02:20 42.15958 -70.60262 7346 ft 300 kts
2026-05-06 02:20 42.17970 -70.59695 7064 ft 299 kts
2026-05-06 02:21 42.20003 -70.59111 6752 ft 298 kts
2026-05-06 02:21 42.22035 -70.58526 6468 ft 297 kts
2026-05-06 02:21 42.24053 -70.57948 6170 ft 295 kts
2026-05-06 02:21 42.26067 -70.57377 5875 ft 294 kts
2026-05-06 02:22 42.28067 -70.56817 5602 ft 293 kts
2026-05-06 02:22 42.30068 -70.56348 5326 ft 288 kts 356°
2026-05-06 02:22 42.32019 -70.56570 5071 ft 275 kts 338°
2026-05-06 02:22 42.33743 -70.57489 4996 ft 265 kts 322°
2026-05-06 02:23 42.35190 -70.58959 5007 ft 257 kts 308°
2026-05-06 02:23 42.36471 -70.60647 5017 ft 257 kts 308°
2026-05-06 02:23 42.37754 -70.62331 4997 ft 257 kts 308°
2026-05-06 02:23 42.39036 -70.64011 5002 ft 256 kts 308°
2026-05-06 02:24 42.40316 -70.65689 4995 ft 256 kts 308°
2026-05-06 02:24 42.41594 -70.67366 4996 ft 256 kts 308°
2026-05-06 02:24 42.42869 -70.69042 4996 ft 256 kts 308°
2026-05-06 02:24 42.44147 -70.70720 4989 ft 256 kts 308°
2026-05-06 02:25 42.45423 -70.72399 4999 ft 257 kts 308°
2026-05-06 02:25 42.46705 -70.74088 4999 ft 257 kts 308°
2026-05-06 02:25 42.47966 -70.75754 4993 ft 257 kts 308°
2026-05-06 02:25 42.49245 -70.77448 4996 ft 257 kts 308°
2026-05-06 02:26 42.50500 -70.79102 4992 ft 243 kts 308°
2026-05-06 02:26 42.51726 -70.80580 4993 ft 235 kts 319°
2026-05-06 02:26 42.53301 -70.81339 5001 ft 250 kts 347°
2026-05-06 02:26 42.55066 -70.80969 5007 ft 264 kts 13°
2026-05-06 02:27 42.56756 -70.80142 4994 ft 251 kts 14°
2026-05-06 02:27 42.58374 -70.79333 4997 ft 247 kts 14°
2026-05-06 02:27 42.59971 -70.78554 5002 ft 246 kts
2026-05-06 02:27 42.61620 -70.78400 5039 ft 229 kts 340°
2026-05-06 02:28 42.63064 -70.79128 4923 ft 213 kts 315°
2026-05-06 02:28 42.64068 -70.80429 4945 ft 196 kts 296°
2026-05-06 02:28 42.64640 -70.82059 4945 ft 188 kts 277°
2026-05-06 02:28 42.64760 -70.83801 4946 ft 183 kts 261°
2026-05-06 02:29 42.64455 -70.85439 4945 ft 182 kts 245°
2026-05-06 02:29 42.63752 -70.86858 4944 ft 184 kts 227°
2026-05-06 02:29 42.62661 -70.87789 4944 ft 190 kts 207°
2026-05-06 02:29 42.61406 -70.88399 4854 ft 191 kts 205°
2026-05-06 02:30 42.60151 -70.89009 4631 ft 191 kts 206°
2026-05-06 02:30 42.58905 -70.89616 4398 ft 190 kts 206°
2026-05-06 02:30 42.57674 -70.90216 4154 ft 188 kts 207°
2026-05-06 02:30 42.56446 -70.90814 3900 ft 185 kts 206°
2026-05-06 02:31 42.55249 -70.91397 3672 ft 179 kts 206°
2026-05-06 02:31 42.54095 -70.91958 3439 ft 173 kts 206°
2026-05-06 02:31 42.53011 -70.92485 3228 ft 165 kts 207°
2026-05-06 02:31 42.51944 -70.93005 3030 ft 157 kts 207°
2026-05-06 02:32 42.50961 -70.93480 2810 ft 141 kts 208°
2026-05-06 02:32 42.50086 -70.93904 2652 ft 129 kts 209°
2026-05-06 02:32 42.49265 -70.94305 2481 ft 123 kts 209°
2026-05-06 02:32 42.48462 -70.94698 2323 ft 123 kts 209°
2026-05-06 02:33 42.47664 -70.95087 2153 ft 122 kts 209°
2026-05-06 02:33 42.47138 -70.95344 2061 ft 122 kts 208°
2026-05-06 02:33 42.45289 -70.96242 1691 ft 122 kts 207°
2026-05-06 02:34 42.44489 -70.96631 1531 ft 123 kts 206°
2026-05-06 02:34 42.43704 -70.97012 1374 ft 121 kts 206°
2026-05-06 02:34 42.42900 -70.97402 1200 ft 123 kts 205°
2026-05-06 02:34 42.42095 -70.97794 956 ft 123 kts 203°
2026-05-06 02:35 42.41295 -70.98181 795 ft 122 kts 202°
2026-05-06 02:35 42.40488 -70.98569 652 ft 125 kts 202°
2026-05-06 02:35 42.39674 -70.98961 537 ft 127 kts 201°
2026-05-06 02:35 42.38843 -70.99362 366 ft 126 kts 201°
2026-05-06 02:36 42.38029 -70.99758 175 ft 122 kts 200°
2026-05-06 02:36 42.37239 -71.00147 48 ft 120 kts 201°
2026-05-06 02:36 42.36542 -71.00489 29 ft 73 kts 199°
2026-05-06 02:36 42.36338 -71.00584 28 ft 1 kts 200°
2026-05-06 02:37 42.36308 -71.00599 28 ft 10 kts 200°
2026-05-06 02:37 42.36216 -71.00645 29 ft 17 kts 202°
2026-05-06 02:37 42.36147 -71.00772 25 ft 17 kts 262°
2026-05-06 02:37 42.36185 -71.00911 28 ft 16 kts 294°
2026-05-06 02:38 42.36230 -71.01049 27 ft 16 kts 292°
2026-05-06 02:38 42.36279 -71.01188 28 ft 16 kts 299°
2026-05-06 02:38 42.36342 -71.01325 28 ft 19 kts 304°
2026-05-06 02:38 42.36432 -71.01387 24 ft 15 kts
2026-05-06 02:39 42.36505 -71.01434 26 ft 9 kts 326°
2026-05-06 02:39 42.36514 -71.01445 24 ft 0 kts 324°